Lapse_Rate
5.0 5.0 5.2 5.3 5.3 5.3 5.1 4.8 5.2 5.4 5.4 5.2 5.5 5.5 5.0 4.8 5.2 5.3 5.4 5.8 6.0 5.9 6.1 6.1 6.2 6.4 6.6 6.8 6.2 6.0 5.9 6.1 5.9 5.8 5.6 5.1 5.3 5.5 5.7 5.9 6.1 6.0 6.0 5.8
5.0 5.2 5.2 5.4 5.7 5.5 5.2 5.2 5.2 5.4 5.1 5.0 5.6 6.0 5.8 5.8 5.6 5.6 5.7 5.7 5.8 5.9 5.8 5.6 5.8 6.1 6.2 6.7 6.6 6.4 5.9 5.7 5.6 5.7 5.4 5.2 5.2 5.3 5.6 5.8 6.0 6.1 5.9 5.8
5.4 5.3 5.4 5.5 5.4 5.5 5.4 5.4 5.2 4.9 5.5 5.7 5.4 6.0 6.2 6.0 5.7 5.8 6.0 6.0 5.9 5.7 5.8 5.7 5.7 5.7 5.8 6.0 6.3 6.4 6.2 5.9 5.7 5.4 5.1 5.1 5.2 5.5 5.6 5.6 5.8 6.1 6.1 6.1
5.3 5.4 5.5 5.4 5.0 5.4 5.5 5.5 5.4 5.2 5.1 5.1 5.3 4.9 5.9 6.3 6.1 6.1 6.1 6.1 6.0 5.7 5.5 5.6 5.8 5.8 5.7 5.7 5.5 5.9 6.0 6.0 5.8 5.8 5.0 5.0 5.0 5.3 5.7 5.9 5.9 6.1 6.0 6.1
5.4 5.3 5.4 5.5 5.4 5.4 5.6 5.9 5.7 5.3 5.3 4.9 5.5 5.1 6.1 6.0 6.1 6.2 6.1 6.2 6.1 5.9 5.6 5.5 5.5 5.6 5.8 5.9 5.8 5.6 5.7 5.9 5.8 5.7 5.4 4.8 5.1 5.5 5.4 5.3 5.5 5.5 5.6 6.0
5.5 5.4 5.6 5.5 5.5 5.5 5.5 6.0 6.1 5.5 5.6 4.8 5.7 5.7 6.1 6.0 6.1 5.9 6.3 6.3 6.1 6.0 5.9 5.7 5.6 5.5 5.6 5.7 5.8 5.6 5.9 5.5 5.6 5.6 5.5 5.4 4.9 5.3 5.3 5.2 5.2 5.2 5.2 5.5
5.4 5.4 5.7 5.6 5.7 5.6 5.5 6.1 5.8 5.0 4.9 5.3 6.1 5.8 6.9 6.7 6.3 6.2 6.0 6.2 6.1 6.0 5.9 5.8 5.8 5.6 5.5 5.6 5.7 5.7 5.7 5.8 5.5 5.5 5.7 5.3 5.3 5.3 5.2 5.2 5.1 5.2 5.2 5.5
5.0 5.3 5.6 5.6 5.6 5.4 5.6 5.6 5.6 5.1 5.1 5.1 6.0 6.0 7.2 6.6 6.5 6.5 6.3 6.2 6.1 6.0 6.0 5.9 5.8 5.7 5.6 5.5 5.5 5.5 5.5 5.7 5.6 5.4 5.6 5.8 5.5 5.4 5.1 5.0 5.0 5.1 5.3 5.5
5.3 5.5 5.7 5.9 6.0 5.9 5.5 5.6 5.5 5.2 5.5 5.2 6.1 6.7 6.6 6.9 6.7 6.4 6.2 6.1 5.8 5.7 5.7 5.7 5.7 5.7 5.5 5.4 5.3 5.3 5.4 5.4 5.6 5.7 5.5 5.2 5.4 5.4 5.2 4.9 5.0 4.8 4.8 4.9
5.0 5.2 5.8 5.8 6.1 6.1 5.8 5.7 5.6 5.6 5.3 5.2 6.2 7.1 7.0 6.7 6.7 6.5 6.1 6.0 5.8 5.7 5.8 5.9 5.7 5.6 5.6 5.6 5.4 5.3 5.3 5.3 5.2 5.4 5.4 5.4 5.2 5.1 5.3 5.4 5.3 5.3 5.2 4.9
5.2 4.8 6.2 5.7 5.8 5.8 5.7 5.7 5.8 5.7 5.9 5.5 5.0 6.1 7.1 6.8 6.7 6.0 5.8 5.7 5.6 5.8 5.7 5.7 5.7 5.8 5.7 5.7 5.6 5.4 5.3 5.1 5.0 4.8 5.1 5.1 5.2 5.2 5.2 5.1 4.9 5.1 5.1 4.7
4.9 4.5 4.9 6.1 6.0 6.2 6.0 6.0 6.0 5.9 6.3 5.8 5.8 5.3 7.0 6.9 6.3 5.9 5.7 5.4 5.1 5.4 5.9 6.0 6.2 6.3 5.9 5.7 5.6 5.4 5.2 5.1 4.9 4.7 5.0 5.0 5.1 5.2 5.2 5.1 5.1 5.0 5.1 5.2
4.3 4.0 4.2 5.5 5.6 5.7 5.7 5.6 5.7 5.6 5.7 5.4 5.3 6.4 7.1 7.5 6.2 5.9 5.5 5.2 5.3 5.1 5.5 5.9 6.3 6.5 6.3 6.0 5.7 5.3 5.2 5.1 5.0 4.8 4.9 5.0 5.0 4.8 4.9 5.0 4.9 4.9 4.9 4.9
4.4 4.1 4.5 5.5 5.8 5.7 5.5 6.1 5.6 5.4 5.3 5.4 5.6 5.7 6.7 6.9 6.2 6.3 6.5 6.4 6.2 6.0 6.4 6.6 6.5 6.4 6.4 6.1 5.7 5.4 5.3 5.2 5.0 4.9 4.9 5.0 5.0 4.9 4.9 4.9 4.9 5.0 4.9 4.8
4.8 4.4 4.5 4.6 4.6 4.9 5.1 6.3 7.1 6.0 6.8 5.2 6.5 5.8 7.5 6.3 6.0 6.2 6.0 6.1 6.5 6.8 6.6 6.5 6.4 6.3 6.1 6.1 5.9 5.6 5.6 5.1 4.9 4.9 4.8 5.0 5.1 5.0 4.9 4.9 4.9 4.9 4.9 4.9
4.5 4.8 4.6 4.5 4.7 4.7 4.6 6.6 6.4 5.8 6.9 6.4 7.1 6.7 6.8 6.1 5.9 6.0 6.1 5.9 6.4 6.8 6.5 6.4 6.4 6.2 6.3 6.3 6.3 6.0 5.5 5.1 5.1 5.2 5.1 4.8 4.6 4.7 4.7 4.7 4.8 4.7 4.7 4.7
4.6 4.8 4.7 4.5 4.7 4.6 4.9 6.6 6.6 7.0 7.1 7.1 6.9 6.9 6.4 6.3 6.1 5.9 6.0 6.6 6.9 6.5 6.4 6.3 6.3 6.3 6.4 6.4 6.4 6.1 5.8 5.1 4.9 4.7 4.8 4.8 4.7 4.6 4.6 4.5 4.4 4.5 4.5 4.5
5.1 4.8 4.8 4.7 4.7 4.5 6.3 6.6 6.8 7.2 6.8 6.7 6.6 6.2 6.3 6.1 5.7 6.0 6.8 7.1 6.6 6.4 6.3 6.3 6.4 6.4 6.4 6.3 6.2 5.9 5.4 5.0 4.9 4.9 4.9 4.8 4.7 4.6 4.4 4.4 4.2 4.1 4.1 4.0
5.6 5.1 5.2 5.1 5.2 5.4 6.0 6.7 6.6 6.6 6.2 6.6 6.6 6.5 6.1 5.8 5.6 5.9 6.4 6.3 6.4 6.2 6.4 6.5 6.4 6.4 6.2 6.3 6.1 5.6 5.2 5.0 4.8 4.8 4.8 4.8 4.6 4.6 4.5 4.3 4.1 4.0 3.7 3.4
5.8 5.5 5.2 5.3 5.3 5.4 6.5 6.6 6.4 6.6 6.1 6.4 6.0 6.0 5.7 5.6 5.5 5.9 6.0 6.3 6.0 6.1 6.2 6.3 6.2 5.9 5.9 5.8 5.5 5.2 5.0 5.0 4.7 4.6 4.5 4.6 4.6 4.5 4.2 4.1 4.0 3.9 3.8 3.7
5.6 5.6 5.4 5.8 5.4 5.6 6.0 6.3 6.6 6.0 6.1 5.7 5.7 5.4 5.4 5.4 5.6 5.9 6.2 6.2 6.3 6.2 6.1 5.9 5.8 5.6 5.4 5.2 5.1 4.8 4.7 4.7 4.6 4.6 4.6 4.6 4.6 4.3 4.1 4.0 3.9 3.8 3.6 3.6
5.5 5.6 5.3 5.2 5.1 5.5 5.8 6.1 6.2 6.1 6.1 6.0 5.4 5.5 5.7 6.0 6.1 6.2 6.2 6.1 6.0 5.8 5.6 5.6 5.3 5.1 4.9 4.8 4.6 4.5 4.4 4.4 4.4 4.5 4.6 4.3 4.1 4.1 4.0 3.9 3.8 3.8 3.7 3.6
5.3 5.6 5.7 5.6 5.9 6.4 6.1 6.3 6.2 6.1 5.7 5.4 5.4 5.8 6.1 6.1 6.2 6.2 6.1 6.0 5.8 5.5 5.3 5.1 4.9 4.8 4.7 4.5 4.4 4.3 4.2 4.3 4.4 4.2 4.1 4.1 4.1 4.1 4.0 3.9 3.8 3.7 3.6 3.4
4.9 5.1 5.3 5.6 5.5 5.8 6.0 5.8 6.0 5.7 5.2 5.2 5.5 5.9 6.2 6.4 6.4 6.3 6.1 5.8 5.3 5.0 4.9 4.9 4.8 4.8 4.6 4.4 4.3 4.2 4.3 4.3 4.3 4.2 4.1 4.1 4.1 3.9 3.8 3.6 3.5 3.6 3.5 3.5
4.8 5.0 5.5 5.1 5.3 5.3 5.5 5.3 5.6 5.3 5.4 5.6 5.8 6.1 6.4 6.4 6.3 6.0 5.6 5.4 5.1 5.1 4.9 4.9 4.6 4.5 4.3 4.2 4.2 4.2 4.3 4.2 4.3 4.2 4.0 4.0 3.9 3.9 3.9 4.0 4.1 4.2 4.1 4.0
5.1 5.4 5.5 5.0 5.1 5.5 5.4 5.5 5.5 5.4 5.4 5.6 6.0 6.3 6.3 6.1 5.8 5.5 5.3 5.2 5.0 4.8 4.6 4.5 4.4 4.3 4.3 4.2 4.3 4.3 4.2 4.1 4.0 4.0 4.0 4.1 4.3 4.4 4.4 4.5 4.5 4.2 4.3 4.4
Wind_Speed
3 5 6 7 6 6 6 8 9 6 5 2 7 9 9 10 7 7 5 3 5 3 4 5 7 7 11 13 15 15 15 15 10 8 6 4 7 8 9 14 21 20 20 20
0 5 5 5 5 6 9 8 7 3 3 8 7 14 11 12 7 6 7 4 5 3 4 5 6 6 7 10 12 14 15 14 11 7 6 5 4 6 8 14 18 22 21 21
4 3 3 5 6 8 8 6 7 7 12 9 6 2 3 5 7 6 4 3 4 4 3 4 5 6 6 7 9 11 13 13 12 11 7 6 6 6 7 10 9 15 20 22
3 3 4 7 3 6 4 5 7 8 7 4 5 4 3 5 6 7 8 8 6 5 4 3 4 4 5 5 3 6 9 12 12 13 10 13 9 8 6 6 7 9 19 20
1 3 4 6 3 4 7 9 9 3 4 6 1 1 3 6 7 9 9 9 8 6 4 4 4 4 4 3 4 5 6 8 11 12 12 8 9 6 5 6 9 10 12 19
1 3 1 4 7 6 10 10 9 5 1 1 3 3 5 4 2 3 7 9 8 7 5 4 4 5 5 4 4 6 6 7 7 8 10 10 11 9 7 8 7 7 7 8
5 4 3 2 6 2 8 7 4 4 2 4 4 1 9 5 3 3 2 9 8 7 5 5 4 3 4 4 5 5 6 6 6 7 7 9 9 7 8 8 7 8 7 8
4 4 3 3 3 3 5 3 2 4 3 6 5 5 5 5 4 2 4 8 8 8 7 6 5 3 4 4 5 6 6 6 6 6 8 7 8 6 5 5 5 5 7 7
6 3 3 3 1 2 3 2 1 4 6 2 5 6 2 3 3 3 4 5 7 8 7 7 6 5 4 4 5 5 6 6 6 6 5 6 6 6 6 7 6 4 6 7
2 6 2 3 2 2 2 2 1 2 4 5 5 6 4 4 5 6 6 8 8 8 8 7 7 5 3 4 3 4 5 6 6 6 5 5 6 6 5 5 6 7 7 8
1 2 5 1 5 2 2 2 3 1 2 3 5 5 3 4 3 6 10 10 9 9 9 8 7 7 7 5 3 4 4 5 5 5 5 6 5 5 5 5 5 5 7 8
2 3 4 7 5 5 3 3 3 1 3 3 4 7 8 7 1 2 5 5 9 8 9 9 8 8 7 6 4 4 4 5 4 5 5 5 5 6 6 6 6 8 5 7
3 2 4 1 1 3 2 4 5 6 3 5 3 6 1 5 3 5 7 7 4 8 10 9 9 8 7 6 5 4 4 4 4 5 5 5 6 6 6 6 6 7 6 6
3 4 6 7 6 8 8 12 8 9 5 6 14 19 21 15 13 9 8 7 8 5 9 8 7 7 7 7 6 5 4 4 4 4 4 5 5 5 5 4 5 5 6 6
3 5 9 13 12 12 17 21 17 14 18 11 23 17 24 14 4 3 5 7 7 8 7 8 8 7 7 7 6 5 4 4 3 3 4 4 3 4 4 4 4 4 3 4
4 4 2 5 13 15 13 20 20 16 18 17 24 22 15 2 6 8 7 7 7 7 3 8 8 8 9 8 7 7 2 2 3 3 3 4 4 5 4 5 5 5 5 4
5 2 0 9 2 5 10 11 4 6 6 6 6 7 4 7 7 7 7 5 7 7 4 7 7 8 8 10 9 3 4 3 5 5 4 3 4 5 5 5 5 5 6 6
5 4 1 5 4 4 6 3 1 3 6 6 6 9 5 2 3 3 6 5 7 6 5 6 8 10 10 9 5 5 3 1 1 3 3 3 4 4 5 5 5 5 5 5
2 5 3 3 5 11 13 2 2 2 2 6 4 7 6 6 4 2 6 6 6 7 7 7 9 11 8 7 5 2 1 1 2 3 3 3 4 4 5 5 5 5 5 4
2 2 4 3 5 5 1 1 2 2 3 9 10 8 8 7 7 2 6 5 7 8 7 8 8 9 6 4 3 1 1 1 3 3 4 4 4 4 5 5 5 4 4 5
3 2 9 10 7 8 2 3 2 0 2 8 9 6 5 4 2 3 3 6 6 6 8 8 6 5 4 3 2 2 2 2 3 3 4 4 5 5 5 5 4 4 5 5
7 6 5 4 5 8 2 1 1 2 3 4 4 6 4 6 1 2 5 5 5 4 5 4 4 4 3 3 3 3 3 4 4 4 5 5 5 5 5 5 4 5 5 5
4 7 3 8 4 3 3 1 5 3 2 4 5 7 6 4 2 4 4 4 5 6 5 4 3 3 2 2 2 4 4 4 4 5 5 5 5 5 6 5 5 4 5 3
3 2 3 3 1 4 7 8 5 3 3 4 6 6 6 3 5 5 4 4 4 4 4 3 3 3 3 2 5 4 5 5 4 5 5 5 5 5 5 4 4 3 2 2
3 2 3 7 8 7 6 5 2 4 4 3 6 8 5 5 6 6 5 4 4 4 4 3 2 3 4 4 4 5 5 4 4 5 5 5 4 4 4 4 2 3 4 5
4 5 3 7 1 1 3 4 4 3 4 5 6 7 8 7 6 6 4 4 4 3 2 3 4 4 4 5 5 5 4 4 5 4 4 4 3 3 4 3 3 11 15 17
Wind_Direction
31 49 30 4 7 339 301 288 286 354 94 324 259 277 280 149 165 165 175 125 98 53 61 57 32 37 20 8 355 354 350 349 353 358 354 2 40 41 35 33 29 23 17 10
185 71 27 326 269 280 297 310 1 331 352 304 285 284 277 167 170 177 150 172 140 114 60 42 48 22 44 16 3 356 355 351 360 12 353 13 22 46 44 34 28 22 22 13
49 53 309 291 314 357 332 31 345 302 318 271 322 320 106 83 124 107 137 196 157 136 120 77 56 27 19 21 13 3 358 354 5 17 37 38 44 37 33 22 23 21 20 20
59 130 325 309 357 14 301 33 333 316 347 308 14 293 171 161 199 188 196 187 185 159 128 101 77 61 44 9 26 4 8 12 9 15 43 55 56 48 37 28 25 22 25 25
322 15 351 318 24 350 268 332 283 253 299 305 4 261 234 166 223 207 198 177 165 156 150 127 104 87 70 12 67 50 8 22 23 24 29 53 56 47 36 30 31 27 21 30
176 111 297 337 302 254 279 295 291 155 204 314 127 90 279 193 89 32 165 151 147 154 162 130 125 110 82 34 24 68 38 22 20 34 29 38 57 46 31 32 33 23 17 22
315 135 114 283 318 167 345 342 347 359 336 242 148 330 246 132 92 26 347 147 150 155 178 164 150 101 67 51 35 52 50 27 38 30 36 34 21 46 38 34 24 14 21 19
351 332 30 4 54 300 299 349 88 305 325 291 203 242 276 105 90 18 332 146 155 168 183 170 164 143 109 68 38 51 52 41 31 43 43 36 34 29 28 27 38 39 17 20
357 295 160 90 12 19 346 40 23 274 268 243 247 250 87 140 186 196 222 159 188 191 187 179 168 174 128 84 54 29 47 43 50 42 53 48 29 35 29 30 23 17 26 24
17 299 25 135 200 223 265 345 316 271 301 300 273 294 288 229 234 198 218 221 222 205 187 172 167 160 121 111 82 49 39 45 31 37 41 54 57 30 29 37 34 26 24 19
344 194 291 217 202 188 184 239 215 273 269 270 309 261 179 45 63 195 209 211 205 201 187 168 163 157 155 139 121 100 64 41 39 30 40 38 33 53 42 33 22 24 26 15
62 304 282 255 60 58 25 306 318 267 303 259 301 272 245 116 189 238 290 239 204 187 172 166 163 148 149 159 151 116 89 73 39 30 46 45 37 29 28 23 21 15 20 24
121 230 302 262 82 25 237 185 237 298 326 229 279 266 54 137 211 242 246 262 282 181 157 157 147 151 159 152 134 115 92 76 50 36 29 34 32 34 29 21 10 6 3 14
99 240 216 248 287 327 290 282 266 263 254 240 242 272 283 303 341 22 13 23 353 223 162 149 143 151 152 137 132 129 101 82 58 43 40 32 20 13 12 12 8 3 1 7
203 251 239 260 277 276 271 278 273 245 250 250 268 267 276 303 50 17 12 12 355 334 148 148 151 154 134 122 110 99 83 74 51 55 40 23 7 352 355 357 351 343 360 360
155 260 2 272 263 257 270 266 270 247 252 254 262 271 284 242 29 21 15 356 337 332 193 153 147 138 135 138 121 79 56 46 12 40 31 8 360 349 356 345 336 337 339 344
161 234 181 284 360 352 280 259 195 195 209 211 229 258 19 46 32 9 335 348 340 339 328 136 126 119 100 93 94 154 119 54 30 18 337 357 352 338 337 334 329 343 340 340
175 171 155 285 319 237 245 344 279 236 273 294 345 49 59 32 325 352 36 10 350 12 49 92 99 100 92 91 115 85 56 80 304 303 357 354 345 333 330 331 337 337 326 331
334 143 231 249 231 286 277 120 32 18 14 30 36 348 334 13 337 139 41 22 9 27 58 69 82 91 102 110 90 124 196 331 313 318 321 345 341 327 324 327 327 320 329 330
23 301 184 207 255 264 122 69 16 133 249 20 6 355 9 7 315 321 34 37 45 35 48 74 81 88 94 93 92 106 81 321 308 12 346 333 321 317 316 320 320 305 311 301
158 176 223 233 252 277 76 164 218 261 279 358 352 353 345 297 285 66 45 60 60 57 68 61 75 89 84 75 44 45 3 329 30 338 323 312 306 312 304 311 307 314 311 316
175 183 194 207 231 255 165 245 188 4 331 322 346 332 316 293 323 115 77 82 85 85 80 87 92 92 82 55 22 356 317 35 355 343 321 310 321 331 325 312 301 305 326 319
252 190 201 196 213 134 40 112 79 30 315 353 328 336 330 316 130 123 121 128 98 82 71 59 69 92 99 46 308 324 2 360 353 337 317 328 334 323 308 315 325 318 325 321
334 45 233 306 199 113 103 82 66 46 18 4 358 349 358 62 92 105 105 94 88 86 80 62 44 33 345 47 356 349 348 350 342 320 321 321 313 306 342 319 304 309 312 290
157 150 239 251 262 105 89 79 43 71 40 41 48 31 29 90 83 91 85 78 77 73 41 37 350 327 7 7 342 341 347 347 340 329 312 300 335 322 298 292 271 285 269 276
184 212 220 288 79 320 78 60 45 65 60 44 78 65 36 59 78 79 71 66 62 46 1 357 5 360 354 342 334 330 352 1 336 313 325 320 297 296 314 307 299 310 310 311